When you browse on this site, cookies collect data to enhance your experience and personalize the content and advertising you see.
Visit our Privacy Policy to learn more. By continuing to use the site, you agree to this use of cookies and data.
  • In Latvia
  • List of Countries
  • For 7 days
  • Water Temperature
  • Satellite Maps
  • Weather Map
  • Weather Widgets
  • user-avatar
    Login

    Hourly Weather Sydney

    Today, 19 January, Saturday

    Time Temperature Precipitation Wind Pressure Humidity
    00:00 +29°C° 0 mm 1 mps 757 mmHg 70%
    01:00 +29°C° 0 mm 1 mps 757 mmHg 77%
    02:00 +28°C° 0 mm 1 mps 757 mmHg 79%
    03:00 +28°C° 0 mm 2 mps 758 mmHg 81%
    04:00 +26°C° 0 mm 3 mps 758 mmHg 92%
    05:00 +26°C° 0 mm 3 mps 759 mmHg 88%
    06:00 +27°C° 0 mm 2 mps 759 mmHg 84%
    07:00 +27°C° 0 mm 2 mps 760 mmHg 80%
    08:00 +28°C° 0 mm 3 mps 760 mmHg 76%
    09:00 +28°C° 0 mm 5 mps 761 mmHg 72%
    10:00 +29°C° 0 mm 8 mps 761 mmHg 66%
    11:00 +28°C° 0.6 mm 8 mps 761 mmHg 66%
    12:00 +28°C° 0.6 mm 8 mps 762 mmHg 65%
    13:00 +27°C° 0.6 mm 8 mps 762 mmHg 64%
    14:00 +27°C° 0.8 mm 7 mps 762 mmHg 67%
    15:00 +26°C° 0.8 mm 7 mps 762 mmHg 70%
    16:00 +26°C° 0.8 mm 6 mps 763 mmHg 73%
    17:00 +25°C° 0.4 mm 5 mps 763 mmHg 74%
    18:00 +25°C° 0.4 mm 5 mps 763 mmHg 76%
    19:00 +23°C° 0.4 mm 5 mps 764 mmHg 78%
    20:00 +23°C° 0.2 mm 4 mps 764 mmHg 78%
    21:00 +23°C° 0.2 mm 4 mps 764 mmHg 78%
    22:00 +23°C° 0.2 mm 4 mps 765 mmHg 78%
    23:00 +24°C° 0.1 mm 3 mps 765 mmHg 78%

    Tomorrow, 20 January, Sunday

    Time Temperature Precipitation Wind Pressure Humidity
    00:00 +24°C° 0.1 mm 3 mps 765 mmHg 78%
    01:00 +22°C° 0.1 mm 3 mps 764 mmHg 77%
    02:00 +23°C° 0 mm 2 mps 764 mmHg 77%
    03:00 +23°C° 0 mm 2 mps 764 mmHg 77%
    04:00 +23°C° 0 mm 2 mps 764 mmHg 77%
    05:00 +24°C° 0 mm 2 mps 764 mmHg 75%
    06:00 +24°C° 0 mm 2 mps 764 mmHg 73%
    07:00 +24°C° 0 mm 1 mps 765 mmHg 71%
    08:00 +26°C° 0 mm 2 mps 764 mmHg 65%
    09:00 +27°C° 0 mm 2 mps 764 mmHg 60%
    10:00 +29°C° 0 mm 3 mps 764 mmHg 55%
    11:00 +30°C° 0 mm 3 mps 764 mmHg 53%
    12:00 +30°C° 0 mm 4 mps 763 mmHg 51%
    13:00 +32°C° 0 mm 4 mps 763 mmHg 50%
    14:00 +30°C° 0.1 mm 5 mps 762 mmHg 54%
    15:00 +29°C° 0.1 mm 5 mps 762 mmHg 58%
    16:00 +28°C° 0.1 mm 5 mps 762 mmHg 62%
    17:00 +27°C° 0.5 mm 5 mps 762 mmHg 67%
    18:00 +26°C° 0.5 mm 5 mps 762 mmHg 72%
    19:00 +25°C° 0.5 mm 4 mps 762 mmHg 77%
    20:00 +25°C° 1.2 mm 3 mps 763 mmHg 80%
    21:00 +25°C° 1.2 mm 2 mps 764 mmHg 83%
    22:00 +24°C° 1.2 mm 1 mps 765 mmHg 85%
    23:00 +24°C° 0.4 mm 1 mps 764 mmHg 86%

    Day after tomorrow, 21 January, Monday

    Time Temperature Precipitation Wind Pressure Humidity
    00:00 +24°C° 0.4 mm 2 mps 764 mmHg 86%
    01:00 +24°C° 0.4 mm 2 mps 764 mmHg 86%
    02:00 +24°C° 0 mm 2 mps 763 mmHg 86%
    03:00 +24°C° 0 mm 2 mps 763 mmHg 85%
    04:00 +24°C° 0 mm 1 mps 763 mmHg 85%
    05:00 +24°C° 0 mm 2 mps 763 mmHg 84%
    06:00 +25°C° 0 mm 2 mps 763 mmHg 83%
    07:00 +25°C° 0 mm 3 mps 763 mmHg 82%
    08:00 +25°C° 0 mm 3 mps 763 mmHg 80%
    09:00 +26°C° 0 mm 3 mps 764 mmHg 78%
    10:00 +26°C° 0 mm 3 mps 764 mmHg 76%
    11:00 +26°C° 0 mm 3 mps 763 mmHg 76%
    12:00 +26°C° 0 mm 3 mps 763 mmHg 77%
    13:00 +26°C° 0 mm 3 mps 763 mmHg 77%
    14:00 +27°C° 0 mm 3 mps 762 mmHg 74%
    15:00 +28°C° 0 mm 4 mps 762 mmHg 72%
    16:00 +29°C° 0 mm 4 mps 761 mmHg 69%
    17:00 +28°C° 0 mm 4 mps 761 mmHg 74%
    18:00 +27°C° 0 mm 4 mps 761 mmHg 79%
    19:00 +27°C° 0 mm 4 mps 762 mmHg 83%
    20:00 +26°C° 0 mm 4 mps 762 mmHg 86%
    21:00 +26°C° 0 mm 3 mps 762 mmHg 89%
    22:00 +25°C° 0 mm 3 mps 763 mmHg 91%
    23:00 +25°C° 0 mm 3 mps 762 mmHg 92%

    22 January, Tuesday

    Time Temperature Precipitation Wind Pressure Humidity
    00:00 +25°C° 0 mm 3 mps 762 mmHg 92%
    01:00 +25°C° 0 mm 2 mps 761 mmHg 93%
    02:00 +25°C° 0 mm 3 mps 761 mmHg 93%
    03:00 +25°C° 0 mm 3 mps 761 mmHg 93%
    04:00 +25°C° 0 mm 3 mps 761 mmHg 93%
    05:00 +25°C° 0 mm 3 mps 761 mmHg 90%
    06:00 +26°C° 0 mm 3 mps 761 mmHg 88%
    07:00 +26°C° 0 mm 3 mps 761 mmHg 86%
    08:00 +28°C° 0 mm 3 mps 761 mmHg 77%
    09:00 +30°C° 0 mm 3 mps 761 mmHg 68%
    10:00 +33°C° 0 mm 3 mps 761 mmHg 58%
    11:00 +34°C° 0 mm 4 mps 760 mmHg 54%
    12:00 +35°C° 0 mm 4 mps 759 mmHg 51%
    13:00 +36°C° 0 mm 5 mps 759 mmHg 47%
    14:00 +36°C° 0 mm 6 mps 758 mmHg 49%
    15:00 +35°C° 0 mm 6 mps 757 mmHg 52%
    16:00 +34°C° 0 mm 7 mps 757 mmHg 55%
    17:00 +33°C° 0.1 mm 6 mps 757 mmHg 59%
    18:00 +32°C° 0.1 mm 5 mps 758 mmHg 64%
    19:00 +30°C° 0.1 mm 3 mps 758 mmHg 68%
    20:00 +29°C° 0.5 mm 4 mps 758 mmHg 71%
    21:00 +28°C° 0.5 mm 4 mps 758 mmHg 74%
    22:00 +28°C° 0.5 mm 4 mps 758 mmHg 77%
    23:00 +27°C° 0 mm 4 mps 758 mmHg 79%

    23 January, Wednesday

    Time Temperature Precipitation Wind Pressure Humidity
    00:00 +27°C° 0 mm 3 mps 757 mmHg 81%
    01:00 +27°C° 0 mm 3 mps 756 mmHg 82%
    02:00 +26°C° 0 mm 2 mps 756 mmHg 83%
    03:00 +26°C° 0 mm 2 mps 756 mmHg 83%
    04:00 +26°C° 0 mm 1 mps 756 mmHg 84%
    05:00 +26°C° 0 mm 1 mps 756 mmHg 80%
    06:00 +27°C° 0 mm 2 mps 756 mmHg 76%
    07:00 +28°C° 0 mm 2 mps 756 mmHg 73%
    08:00 +31°C° 0 mm 2 mps 756 mmHg 61%
    09:00 +34°C° 0 mm 1 mps 756 mmHg 49%
    10:00 +37°C° 0 mm 1 mps 756 mmHg 38%
    11:00 +38°C° 0 mm 3 mps 756 mmHg 39%
    12:00 +39°C° 0 mm 5 mps 755 mmHg 40%
    13:00 +39°C° 0 mm 7 mps 755 mmHg 41%
    14:00 +34°C° 0.5 mm 8 mps 755 mmHg 52%
    15:00 +31°C° 0.5 mm 8 mps 756 mmHg 63%
    16:00 +27°C° 0.5 mm 9 mps 756 mmHg 73%
    17:00 +26°C° 2.3 mm 8 mps 757 mmHg 76%
    18:00 +24°C° 2.3 mm 7 mps 758 mmHg 78%
    19:00 +23°C° 2.3 mm 6 mps 759 mmHg 81%
    20:00 +23°C° 0.1 mm 7 mps 760 mmHg 81%
    21:00 +23°C° 0.1 mm 7 mps 761 mmHg 80%
    22:00 +23°C° 0.1 mm 7 mps 762 mmHg 80%
    23:00 +23°C° 0 mm 7 mps 762 mmHg 79%

    24 January, Thursday

    Time Temperature Precipitation Wind Pressure Humidity
    00:00 +23°C° 0 mm 7 mps 762 mmHg 79%
    01:00 +22°C° 0 mm 7 mps 761 mmHg 78%
    02:00 +22°C° 0.1 mm 7 mps 761 mmHg 77%
    03:00 +22°C° 0.1 mm 6 mps 761 mmHg 76%
    04:00 +22°C° 0.1 mm 6 mps 761 mmHg 76%
    05:00 +22°C° 0 mm 5 mps 762 mmHg 74%
    06:00 +22°C° 0 mm 5 mps 762 mmHg 72%
    07:00 +22°C° 0 mm 5 mps 763 mmHg 70%
    08:00 +23°C° 0.1 mm 5 mps 763 mmHg 70%
    09:00 +23°C° 0.1 mm 5 mps 763 mmHg 69%
    10:00 +23°C° 0.1 mm 5 mps 763 mmHg 69%
    11:00 +23°C° 0.1 mm 5 mps 763 mmHg 70%
    12:00 +23°C° 0.1 mm 5 mps 763 mmHg 71%
    13:00 +23°C° 0.1 mm 4 mps 763 mmHg 72%
    14:00 +23°C° 0 mm 5 mps 762 mmHg 70%
    15:00 +23°C° 0 mm 5 mps 762 mmHg 69%
    16:00 +25°C° 0 mm 5 mps 762 mmHg 68%
    17:00 +23°C° 0 mm 4 mps 762 mmHg 70%
    18:00 +23°C° 0 mm 4 mps 763 mmHg 72%
    19:00 +22°C° 0 mm 4 mps 763 mmHg 73%
    20:00 +22°C° 0 mm 3 mps 763 mmHg 75%
    21:00 +22°C° 0 mm 3 mps 763 mmHg 76%
    22:00 +22°C° 0 mm 3 mps 763 mmHg 78%
    23:00 +23°C° 0 mm 2 mps 763 mmHg 79%
    Show more